Weather in Mulyanka

Russia / Perm Krai     57°48′22″N   56°22′32″E
temp.,
°C
wind,
m/s
gust,
m/s
humid.,
%
clouds,
%
prec.,
mm/h
press.,
hPa
HPBL,
m
25 february, thu
thu2523:00−26nw249943 0.0 103157
02:00−27nw229957 0.0 103125
05:00−28nw229933 0.0 103119
08:00−29wnw129927 0.0 103119
11:00−23w129114 0.0 1030216
14:00−17s128058 0.0 1029447
17:00−16s238573 0.0 1028528
20:00−22ssw129781 0.0 102820
26 february, fri
fri2623:00−25sse229546 0.0 102823
02:00−27sse23960 0.0 102760
05:00−28se259710 0.0 1027107
08:00−28sse369579 0.0 1026147
11:00−23sse379059 0.0 1026266
14:00−18sse468919 0.0 1024400
17:00−16se479055 0.0 1023511
20:00−19se379592 0.0 1020136
27 february, sat
sat2723:00−21se369456 0.0 1019115
02:00−21se38931 0.0 1017162
05:00−21ese38959 0.0 1015202
08:00−22ese4119286 0.0 1012271
11:00−19ese4109093 0.0 1010354
14:00−15ese51187100 0.0 1008527
17:00−13e61092100 0.4 1008711
20:00−16ese51193100 0.3 1009578
28 february, sun
sun2823:00−18e51192100 0.5 1009553
02:00−18e41094100 0.1 1008493
05:00−18e41095100 0.3 1009456
08:00−18e4995100 0.1 1009427
11:00−17e4892100 0.3 1009445
14:00−14ene4790100 0.2 1010500
17:00−14ene3693100 0.4 1010505
20:00−16ene3795100 0.4 1012412
1 march, mon
mon123:00−17ene3896100 0.6 1014370
02:00−18ene3796100 0.3 1015315
05:00−19ne269697 0.3 1016276
08:00−22nne259766 0.0 1017110
11:00−18nne249033 0.0 1018251
14:00−13n238324 0.0 1017408
17:00−12nnw348960 0.0 1017426
20:00−17w229639 0.0 101720